Regional Weather Roundup
Issued by NWS Midland/Odessa, TX

Skip options and go directly to product.
Home | Oldest Version | Previous Version | Current Version | All | Graphics & Text | Save Text | Print | Product List | Glossary On

Skip product version selection by date and time.   
018
ASUS44 KMAF 280610
RWRMAF
MIDLAND AREA WEATHER ROUNDUP
NATIONAL WEATHER SERVICE MIDLAND TX
100 AM CDT SUN AUG 28 2016

...IN SOUTHWEST TEXAS AND SOUTHEAST NEW MEXICO...

CITY           SKY/WX    TMP DP  RH WIND       PRES   REMARKS
ALPINE         CLEAR     69  61  76 S8        30.21F
ANDREWS        NOT AVBL
ARTESIA        CLOUDY    73  59  60 NW14      30.09R
BIG SPRING     CLEAR     73  66  79 SE6       30.11S
CARLSBAD       CLEAR     72  66  81 S7        30.05S
DRYDEN           N/A     72  67  84 N6        30.04R
FORT STOCKTON  CLEAR     72  64  76 SE7       30.08S
GUAD PASS      CLEAR     69  56  62 NE12      30.22R
HOBBS          CLEAR     72  63  73 SE9       30.12R
MARFA          CLOUDY   N/A N/A N/A SE5       30.19F
MIDLAND AIRPK  CLEAR     77  64  64 SE12      30.09S
MIDLAND INTL   CLEAR     75  65  70 SE8       30.08S
ODESSA         CLEAR     75  63  66 SE10      30.09S
PECOS          CLEAR     74  65  74 SE7       30.03F
PRESIDIO       NOT AVBL
SEMINOLE       CLEAR     71  63  75 CALM      30.11S
SNYDER           N/A     72  68  86 SE7       30.09S
WINK           CLEAR     75  65  70 SE8       30.04F
$$
...OTHER STATIONS IN TEXAS...

CITY           SKY/WX    TMP DP  RH WIND       PRES   REMARKS
ABILENE        CLEAR     72  69  90 S5        30.06S
AMARILLO       CLEAR     68  63  84 SE15      30.13R
AUSTIN         CLEAR     78  73  84 SE5       30.00S
BROWNSVILLE    CLEAR     78  75  90 CALM      29.96S
CORPUS CHRISTI PTCLDY    80  75  84 S5        29.95S
DALLAS FTW     PTCLDY    80  71  74 SE8       30.02R
DEL RIO        CLEAR     80  69  69 SE5       29.99R
EL PASO        MOCLDY    70  63  78 N12       30.09F
HOUSTON INT    CLOUDY    76  73  91 NE7       29.97F
LUBBOCK        PTCLDY    69  64  84 SE9       30.12R
SAN ANGELO     CLOUDY    75  67  76 S6        30.05F
SAN ANTONIO    PTCLDY    79  70  74 E6        30.01R
WACO           CLEAR     78  73  84 SE8       30.01S
WICHITA FALLS  NOT AVBL
$$
...OTHER LOCATIONS IN NEW MEXICO...

CITY           SKY/WX    TMP DP  RH WIND       PRES   REMARKS
ALAMAGORDO     CLOUDY    66  59  77 SW6       30.14F
ALBUQUERQUE    CLOUDY    64  52  64 N3        30.22S
CANNON AFB     CLOUDY    63  61  93 S16       30.18R
CLOVIS         CLOUDY    63  55  77 SE13      30.18F
HOLLOMAN AFB   CLOUDY    68  61  77 SE9       30.12F
ROSWELL        PTCLDY    73  57  57 E9G18     30.08R
RUIDOSO          N/A     59  46  63 CALM      30.30S
SANTA FE       CLOUDY    55  50  83 N7        30.26S
TRUTH OR CONSE CLOUDY    67  57  70 CALM      30.18S
TUCUMCARI      CLEAR     66  53  63 S9        30.11R
$$

USA.gov is the U.S. government's official web portal to all federal, state and local government web resources and services.